TimeEST,TemperatureF,Dew PointF,Humidity,Sea Level PressureIn,VisibilityMPH,Wind Direction,Wind SpeedMPH,Gust SpeedMPH,PrecipitationIn,Events,Conditions,WindDirDegrees,DateUTC
12:53 AM,62.1,39.0,43,30.18,10.0,NNW,6.9,-,N/A,,Mostly Cloudy,340,2013-02-01 05:53:00
1:53 AM,60.1,39.9,47,30.18,10.0,NNW,8.1,-,N/A,,Scattered Clouds,330,2013-02-01 06:53:00
2:53 AM,59.0,37.9,46,30.17,10.0,NNW,6.9,-,N/A,,Partly Cloudy,330,2013-02-01 07:53:00
3:53 AM,57.9,37.9,47,30.17,10.0,NNW,8.1,-,N/A,,Clear,330,2013-02-01 08:53:00
4:53 AM,55.9,37.0,49,30.17,10.0,NNW,6.9,-,N/A,,Partly Cloudy,330,2013-02-01 09:53:00
5:20 AM,55.4,37.4,51,30.18,10.0,NNW,8.1,-,N/A,,Scattered Clouds,340,2013-02-01 10:20:00
5:53 AM,55.9,37.9,51,30.19,10.0,NNW,6.9,-,N/A,,Clear,330,2013-02-01 10:53:00
6:53 AM,55.0,39.0,55,30.21,10.0,Variable,6.9,17.3,N/A,,Clear,0,2013-02-01 11:53:00
7:53 AM,57.0,41.0,55,30.23,10.0,North,8.1,-,N/A,,Scattered Clouds,350,2013-02-01 12:53:00
8:53 AM,61.0,44.1,54,30.25,10.0,NNW,8.1,-,N/A,,Partly Cloudy,340,2013-02-01 13:53:00
9:53 AM,64.0,46.0,52,30.27,10.0,North,9.2,18.4,N/A,,Partly Cloudy,360,2013-02-01 14:53:00
10:53 AM,70.0,48.9,47,30.27,10.0,North,6.9,-,N/A,,Scattered Clouds,360,2013-02-01 15:53:00
11:53 AM,73.0,50.0,44,30.25,10.0,NNE,8.1,-,N/A,,Scattered Clouds,30,2013-02-01 16:53:00
12:53 PM,73.9,48.9,41,30.24,10.0,NE,11.5,18.4,N/A,,Scattered Clouds,40,2013-02-01 17:53:00
1:53 PM,73.0,48.9,42,30.22,10.0,NE,12.7,17.3,N/A,,Scattered Clouds,50,2013-02-01 18:53:00
2:53 PM,73.9,48.9,41,30.21,10.0,NNE,12.7,19.6,N/A,,Mostly Cloudy,30,2013-02-01 19:53:00
3:53 PM,72.0,51.1,48,30.21,10.0,NE,9.2,17.3,N/A,,Mostly Cloudy,40,2013-02-01 20:53:00
4:53 PM,71.1,51.1,49,30.21,10.0,NE,9.2,17.3,N/A,,Scattered Clouds,40,2013-02-01 21:53:00
5:53 PM,70.0,53.1,55,30.22,10.0,NE,11.5,18.4,N/A,,Scattered Clouds,40,2013-02-01 22:53:00
6:53 PM,69.1,50.0,51,30.23,10.0,NE,9.2,-,N/A,,Mostly Cloudy,40,2013-02-01 23:53:00
7:53 PM,68.0,51.1,55,30.24,10.0,NE,8.1,-,N/A,,Scattered Clouds,40,2013-02-02 00:53:00
8:53 PM,66.0,53.1,63,30.24,10.0,North,6.9,-,N/A,,Mostly Cloudy,10,2013-02-02 01:53:00
9:53 PM,64.0,52.0,65,30.25,10.0,North,6.9,-,N/A,,Scattered Clouds,350,2013-02-02 02:53:00
10:53 PM,63.0,52.0,67,30.25,10.0,North,4.6,-,N/A,,Scattered Clouds,350,2013-02-02 03:53:00
11:53 PM,62.1,51.1,67,30.25,10.0,NNW,3.5,-,N/A,,Scattered Clouds,340,2013-02-02 04:53:00